Location: ?????
(54.9266°N, 38.5527°E)
Time: 03:33:21
(UTC+00:00)

COSMOS 2428 - Pass Details

Date: 14 April 2024
Orbit: 845 x 855 km, 70.9° (Epoch: 20 May)

Event Time Altitude Azimuth Distance (km) Brightness Sun altitude
Exits shadow 01:22:43 11° 239° (WSW) 2,399 4.4 -8.9°
Maximum altitude 01:28:01 49° 313° (NW) 1,085 3.2 -8.3°
Drops below altitude 10° 01:33:33 10° 29° (NNE) 2,484 6.1 -7.6°
Sets 01:36:06 0° 35° (NE) 3,421 7.1 -7.2°
